Location: Adavinekkalam
(16.6301°N, 80.7229°E)
Time: 16:05:35
(UTC+00:00)

Resurs 01 Rocket - Pass Details

Date: 15 May 2026
Orbit: 627 x 634 km, 97.7° (Epoch: 10 June)

Event Time Altitude Azimuth Distance (km) Brightness Sun altitude
Rises 14:28:53 0° 196° (SSW) 2,900 4.9 -20.1°
Reaches altitude 10° 14:31:31 10° 212° (SSW) 1,994 4.2 -20.7°
Maximum altitude 14:34:47 21° 261° (W) 1,412 4.0 -21.4°
Drops below altitude 10° 14:38:04 10° 311° (NW) 1,998 5.3 -22.1°
Sets 14:40:43 0° 327° (NNW) 2,906 6.0 -22.6°
